Goose Bay Airport

Jump to: basic info | weather | frequencies | runways | comments

Related pages: nearby airports | nearby navaids | notams | map

Basic information (top)

Codes: YYR CYYR
Location: lon 53.319199, lat -60.425800, elev 160 ft / 49 m msl
Status: medium_airport
Scheduled airline service: yes
Links: Wikipedia Mobile

Weather (top)

Current conditions (rec'd 2015/03/06 03:00Z):

CYYR 060300Z 27014KT 15SM FEW035 SCT064 BKN110 M19/M28 A2973 RMK SC1SC1AC1 SLP074

Airport forecast (rec'd 2015/03/05 00:33Z):

TAF CYYR 052330Z 0600/0624 27015G25KT P6SM FEW050 SCT120 
     FM060300 27012KT P6SM FEW050 
     FM061500 27018G28KT P6SM BKN030 
     FM062200 27008KT P6SM BKN050 
      RMK NXT FCST BY 060600Z

Frequencies (top)

Verify before use: may be inaccurate or out of date.

ATIS: 128.1 MHz (ATIS)
CLD: 118.1 MHz (CLNC DEL)
CNTR: 120.4 MHz (GANDER CNTR)
FBO: 122.9 MHz (Wooward Aviation (Esso))
GND: 121.9 MHz (GND)
MIL: 129.3 MHz (Ranger Base)
OPS: 129.85 MHz (WING OPS)
PAL: 120.4 MHz (Gander Centre)
PMSV: 344.6 MHz (PMSV)
RCO: 123.475 MHz (Halifax Radio (FISE))
RDR: 119.9 MHz (PAR)
TML: 119.5 MHz (Goose Bay Terminal)
TWR: 119.1 MHz (TWR)

Runways (top)

08/26: 11,046 x 209 ft (3,367 x 64 m) — paved — lighted

16/34: 9,580 x 200 ft (2,920 x 61 m) — paved — lighted

Latest comments (top)

USAF: Across the pond and back [read]

More... (top)

See also NOTAMs and nearby airports and navaids, or visit the Goose Bay Airport page at the main OurAirports website..